• In Belarus
  • List of Countries
  • For 7 days
  • Water Temperature
  • Satellite Maps
  • Weather Map
  • Weather Widgets
  • user-avatar
    Login

    Hourly Weather Lezhe

    Today, 25 July, Tuesday

    Time Temperature Precipitation Wind Pressure Humidity
    00:00 +23°C° 0 mm 4 mps 730 mmHg 54%
    01:00 +23°C° 0 mm 5 mps 729 mmHg 57%
    02:00 +23°C° 0 mm 5 mps 729 mmHg 63%
    03:00 +22°C° 0 mm 4 mps 729 mmHg 68%
    04:00 +21°C° 0 mm 3 mps 729 mmHg 74%
    05:00 +24°C° 0.3 mm 3 mps 729 mmHg 72%
    06:00 +25°C° 0.3 mm 4 mps 729 mmHg 71%
    07:00 +26°C° 0 mm 3 mps 729 mmHg 67%
    08:00 +27°C° 0.6 mm 3 mps 729 mmHg 64%
    09:00 +28°C° 0.6 mm 4 mps 729 mmHg 61%
    10:00 +28°C° 0.6 mm 4 mps 729 mmHg 58%
    11:00 +29°C° 0.4 mm 4 mps 729 mmHg 55%
    12:00 +29°C° 0.4 mm 4 mps 729 mmHg 53%
    13:00 +29°C° 0 mm 4 mps 730 mmHg 53%
    14:00 +29°C° 0.3 mm 4 mps 729 mmHg 52%
    15:00 +29°C° 0.3 mm 3 mps 729 mmHg 51%
    16:00 +29°C° 0.3 mm 3 mps 729 mmHg 50%
    17:00 +27°C° 0.1 mm 2 mps 729 mmHg 56%
    18:00 +26°C° 0.1 mm 2 mps 729 mmHg 61%
    19:00 +24°C° 0.1 mm 1 mps 729 mmHg 67%
    20:00 +23°C° 0.2 mm 1 mps 730 mmHg 71%
    21:00 +23°C° 0.2 mm 1 mps 730 mmHg 74%
    22:00 +21°C° 0.2 mm 2 mps 730 mmHg 78%
    23:00 +21°C° 0.5 mm 2 mps 730 mmHg 79%

    Tomorrow, 26 July, Wednesday

    Time Temperature Precipitation Wind Pressure Humidity
    00:00 +20°C° 0.5 mm 2 mps 730 mmHg 80%
    01:00 +20°C° 0.5 mm 2 mps 730 mmHg 81%
    02:00 +20°C° 0.3 mm 2 mps 730 mmHg 82%
    03:00 +19°C° 0.3 mm 2 mps 730 mmHg 82%
    04:00 +19°C° 0.3 mm 2 mps 730 mmHg 83%
    05:00 +21°C° 0.5 mm 1 mps 730 mmHg 79%
    06:00 +23°C° 0.5 mm 1 mps 730 mmHg 74%
    07:00 +24°C° 0.5 mm 1 mps 730 mmHg 70%
    08:00 +25°C° 0.5 mm 2 mps 730 mmHg 66%
    09:00 +26°C° 0.5 mm 2 mps 730 mmHg 61%
    10:00 +27°C° 0.5 mm 3 mps 730 mmHg 57%
    11:00 +28°C° 0.6 mm 3 mps 730 mmHg 57%
    12:00 +28°C° 0.6 mm 3 mps 730 mmHg 58%
    13:00 +28°C° 0.6 mm 4 mps 730 mmHg 58%
    14:00 +28°C° 0.5 mm 4 mps 730 mmHg 58%
    15:00 +27°C° 0.5 mm 3 mps 730 mmHg 59%
    16:00 +27°C° 0.5 mm 3 mps 729 mmHg 60%
    17:00 +25°C° 0.3 mm 2 mps 730 mmHg 66%
    18:00 +24°C° 0.3 mm 2 mps 730 mmHg 72%
    19:00 +21°C° 0.3 mm 2 mps 730 mmHg 79%
    20:00 +21°C° 0.2 mm 1 mps 730 mmHg 82%
    21:00 +21°C° 0.2 mm 1 mps 731 mmHg 85%
    22:00 +20°C° 0.2 mm 1 mps 731 mmHg 88%
    23:00 +19°C° 0.2 mm 1 mps 731 mmHg 88%

    Day after tomorrow, 27 July, Thursday

    Time Temperature Precipitation Wind Pressure Humidity
    00:00 +19°C° 0.2 mm 1 mps 731 mmHg 88%
    01:00 +19°C° 0.2 mm 1 mps 731 mmHg 89%
    02:00 +19°C° 0.4 mm 1 mps 731 mmHg 89%
    03:00 +19°C° 0.4 mm 1 mps 731 mmHg 88%
    04:00 +18°C° 0.4 mm 1 mps 731 mmHg 88%
    05:00 +20°C° 0.1 mm 1 mps 732 mmHg 83%
    06:00 +20°C° 0.1 mm 2 mps 732 mmHg 77%
    07:00 +23°C° 0.1 mm 2 mps 732 mmHg 72%
    08:00 +25°C° 0 mm 2 mps 732 mmHg 62%
    09:00 +26°C° 0 mm 2 mps 733 mmHg 53%
    10:00 +28°C° 0 mm 2 mps 733 mmHg 43%
    11:00 +29°C° 0.1 mm 3 mps 733 mmHg 42%
    12:00 +29°C° 0.1 mm 4 mps 732 mmHg 40%
    13:00 +30°C° 0.1 mm 4 mps 732 mmHg 39%
    14:00 +29°C° 0.1 mm 4 mps 732 mmHg 42%
    15:00 +29°C° 0.1 mm 4 mps 732 mmHg 45%
    16:00 +28°C° 0.1 mm 4 mps 732 mmHg 48%
    17:00 +27°C° 0 mm 3 mps 733 mmHg 54%
    18:00 +25°C° 0 mm 3 mps 733 mmHg 61%
    19:00 +23°C° 0 mm 2 mps 733 mmHg 68%
    20:00 +21°C° 0 mm 2 mps 734 mmHg 70%
    21:00 +20°C° 0 mm 2 mps 734 mmHg 73%
    22:00 +20°C° 0 mm 2 mps 735 mmHg 75%
    23:00 +19°C° 0 mm 2 mps 735 mmHg 75%

    28 July, Friday

    Time Temperature Precipitation Wind Pressure Humidity
    00:00 +19°C° 0 mm 2 mps 735 mmHg 74%
    01:00 +19°C° 0 mm 2 mps 735 mmHg 74%
    02:00 +18°C° 0 mm 2 mps 735 mmHg 74%
    03:00 +18°C° 0 mm 2 mps 736 mmHg 73%
    04:00 +18°C° 0 mm 2 mps 736 mmHg 73%
    05:00 +20°C° 0 mm 2 mps 736 mmHg 66%
    06:00 +23°C° 0 mm 2 mps 736 mmHg 58%
    07:00 +25°C° 0 mm 1 mps 737 mmHg 51%
    08:00 +26°C° 0 mm 1 mps 737 mmHg 46%
    09:00 +28°C° 0 mm 1 mps 737 mmHg 40%
    10:00 +30°C° 0 mm 1 mps 737 mmHg 35%
    11:00 +31°C° 0 mm 2 mps 737 mmHg 34%
    12:00 +33°C° 0 mm 3 mps 737 mmHg 32%
    13:00 +34°C° 0 mm 3 mps 737 mmHg 31%
    14:00 +33°C° 0 mm 3 mps 737 mmHg 33%
    15:00 +33°C° 0 mm 3 mps 736 mmHg 36%
    16:00 +31°C° 0 mm 3 mps 736 mmHg 38%
    17:00 +29°C° 0 mm 3 mps 737 mmHg 47%
    18:00 +27°C° 0 mm 2 mps 737 mmHg 55%
    19:00 +24°C° 0 mm 1 mps 737 mmHg 64%
    20:00 +24°C° 0 mm 1 mps 737 mmHg 65%
    21:00 +23°C° 0 mm 1 mps 738 mmHg 66%
    22:00 +22°C° 0 mm 1 mps 738 mmHg 67%
    23:00 +22°C° 0 mm 1 mps 739 mmHg 66%

    29 July, Saturday

    Time Temperature Precipitation Wind Pressure Humidity
    00:00 +22°C° 0 mm 1 mps 739 mmHg 65%
    01:00 +22°C° 0 mm 1 mps 739 mmHg 63%
    02:00 +22°C° 0 mm 1 mps 739 mmHg 63%
    03:00 +20°C° 0 mm 2 mps 739 mmHg 62%
    04:00 +20°C° 0 mm 2 mps 739 mmHg 62%
    05:00 +23°C° 0 mm 2 mps 739 mmHg 57%
    06:00 +25°C° 0 mm 1 mps 739 mmHg 53%
    07:00 +27°C° 0 mm 1 mps 740 mmHg 48%
    08:00 +29°C° 0 mm 1 mps 740 mmHg 43%
    09:00 +31°C° 0 mm 1 mps 740 mmHg 39%
    10:00 +33°C° 0 mm 1 mps 740 mmHg 34%
    11:00 +35°C° 0 mm 2 mps 740 mmHg 32%
    12:00 +36°C° 0 mm 3 mps 740 mmHg 31%
    13:00 +36°C° 0 mm 3 mps 739 mmHg 30%
    14:00 +36°C° 0 mm 3 mps 739 mmHg 31%
    15:00 +36°C° 0 mm 3 mps 739 mmHg 33%
    16:00 +35°C° 0 mm 3 mps 739 mmHg 34%
    17:00 +32°C° 0 mm 2 mps 739 mmHg 41%
    18:00 +29°C° 0 mm 2 mps 739 mmHg 47%
    19:00 +27°C° 0 mm 1 mps 739 mmHg 53%
    20:00 +26°C° 0 mm 1 mps 739 mmHg 54%
    21:00 +26°C° 0 mm 1 mps 740 mmHg 55%
    22:00 +25°C° 0 mm 1 mps 740 mmHg 55%
    23:00 +25°C° 0 mm 1 mps 740 mmHg 55%

    30 July, Sunday

    Time Temperature Precipitation Wind Pressure Humidity
    00:00 +24°C° 0 mm 1 mps 740 mmHg 55%
    01:00 +24°C° 0 mm 1 mps 740 mmHg 54%
    02:00 +24°C° 0 mm 1 mps 740 mmHg 55%
    03:00 +24°C° 0 mm 1 mps 740 mmHg 55%
    04:00 +23°C° 0 mm 1 mps 740 mmHg 55%
    05:00 +25°C° 0 mm 1 mps 740 mmHg 51%
    06:00 +27°C° 0 mm 1 mps 740 mmHg 48%
    07:00 +29°C° 0 mm 1 mps 740 mmHg 44%
    08:00 +31°C° 0 mm 1 mps 740 mmHg 40%
    09:00 +33°C° 0 mm 1 mps 740 mmHg 36%
    10:00 +35°C° 0 mm 1 mps 740 mmHg 32%
    11:00 +37°C° 0 mm 2 mps 739 mmHg 31%
    12:00 +37°C° 0 mm 3 mps 739 mmHg 30%
    13:00 +37°C° 0 mm 3 mps 739 mmHg 29%
    14:00 +37°C° 0 mm 3 mps 738 mmHg 30%
    15:00 +36°C° 0 mm 3 mps 738 mmHg 31%
    16:00 +36°C° 0 mm 3 mps 738 mmHg 32%
    17:00 +34°C° 0 mm 3 mps 738 mmHg 38%
    18:00 +30°C° 0 mm 2 mps 738 mmHg 43%
    19:00 +28°C° 0 mm 1 mps 738 mmHg 49%
    20:00 +27°C° 0.1 mm 1 mps 738 mmHg 49%
    21:00 +27°C° 0.1 mm 1 mps 739 mmHg 50%
    22:00 +26°C° 0.1 mm 1 mps 739 mmHg 50%
    23:00 +26°C° 0 mm 1 mps 739 mmHg 50%
    Show more